Terug naar catalogus

STARLINK-11117

ActiefCommunicatieVLEO
NORAD 59761·PAYLOAD·🇺🇸 United States

Gelanceerd May 14, 2024 vanaf Vandenberg Space Force Base

Loading…

Volgende Passages (komende 24 uur)

TLE

VersSource: CelesTrak SupGP

Epoch: Sep 15, 2026, 02:01 UTC

1 59761C 24091J   26258.08451389 -.00031620  00000+0 -26044-3 0  2585
2 59761  53.1565 352.4902 0001086 102.6703 185.0820 15.69727063    15

Volg STARLINK-11117 in realtime met AllMySat

Download on the App Store